Regional Weather Roundup
Issued by NWS Sterling, VA

Home | Current Version | Previous Version | Graphics & Text | Print | Product List | Glossary On
Versions: 1 2 3 4 5 6 7 8 9 10 11 12 13 14 15 16 17 18 19 20 21 22 23 24 25 26 27 28 29 30 31 32 33 34 35 36 37 38 39 40 41 42 43 44 45 46 47 48 49 50
658
ASUS41 KLWX 290411
RWRLWX

REGIONAL WEATHER ROUNDUP
NATIONAL WEATHER SERVICE BALTIMORE MD/WASHINGTON DC
1200 AM EDT MON MAY 29 2017

Note: "FAIR" indicates few or no clouds below 12,000 feet
with no significant weather and/or obstructions to visibility.
 TC=TEMPERATURE CELSIUS

 * =Non NWS site. Station does not report precipitation (e.g. rain,
    snow, etc.), thunder, or fog.

DCZ001-MDZ009-015-VAZ040>042-051-053>054-290500-
WASHINGTON METRO

CITY           SKY/WX    TMP DP  RH WIND       PRES   REMARKS
WASHINGTON NAT CLOUDY    66  64  93 NE12      29.83F
DULLES         DRIZZLE   65  63  93 NE6       29.83S FOG
ANDREWS AFB    CLOUDY    63  63 100 E6        29.82S FOG
FT BELVOIR     CLOUDY    66  64  94 CALM      29.82S
QUANTICO       LGT RAIN  67  67 100 NE7       29.83S
COLLEGE PARK*  CLOUDY    64  62  95 CALM      29.83F
LEESBURG*      CLOUDY    64  64 100 CALM      29.84F FOG
MANASSAS*      CLOUDY    66  64  93 N3        29.83F FOG
GAITHERSBURG*  CLOUDY    63  62  97 CALM      29.84F FOG

$$

MDZ006>007-011-014-290500-
BALTIMORE METRO

CITY           SKY/WX    TMP DP  RH WIND       PRES   REMARKS
BWI AIRPORT    CLOUDY    63  63 100 NE9       29.83F
MD SCIENCE CTR   N/A     64  63  96 MISG      29.84F
MARTIN STATE   DRIZZLE   63  63 100 NE3       29.86S
ANNAPOLIS      CLOUDY    66  65  96 E5        29.83S
FORT MEADE*    CLOUDY    63  61  94 E5        29.86S

$$

MDZ012-015-019>023-290500-
MARYLAND EASTERN SHORE

CITY           SKY/WX    TMP DP  RH WIND       PRES   REMARKS
OCEAN CITY     CLOUDY    63  62  97 N5        29.79F
SALISBURY      LGT RAIN  63  63 100 NE6       29.80F FOG
BAY BRIDGE AP* LGT RAIN  63  63 100 NE5       29.83F FOG
CAMBRIDGE*     CLOUDY    63  63 100 CALM      29.82S FOG
EASTON*        CLOUDY    64  61  92 E6        29.86F

$$

MDZ017>025-290500-
SOUTHERN MARYLAND

CITY           SKY/WX    TMP DP  RH WIND       PRES   REMARKS
PATUXENT RIVER CLOUDY    65  65 100 NE8       29.81S
ST INIGOES     CLOUDY    66  66 100 NE5       29.80F FOG
LEONARDTOWN*   CLOUDY    63  63 100 CALM      29.83S

$$

MDZ003>005-290500-
NORTH CENTRAL MARYLAND

CITY           SKY/WX    TMP DP  RH WIND       PRES   REMARKS
FREDERICK*     DRIZZLE   66  66 100 CALM      29.86S
HAGERSTOWN APT CLOUDY    65  64  97 CALM      29.82F FOG
WESTMINSTER*   RAIN      63  63 100 CALM      29.84F

$$

MDZ501>502-290500-
WESTERN MARYLAND

CITY           SKY/WX    TMP DP  RH WIND       PRES   REMARKS
OAKLAND*       CLOUDY    59  57  94 SW8       29.88F
CUMBERLAND*    CLOUDY    64  64 100 CALM      29.87S

$$

VAZ025>031-290500-
SHENANDOAH VALLEY

CITY           SKY/WX    TMP DP  RH WIND       PRES   REMARKS
WINCHESTER*    CLOUDY    61  61 100 CALM      29.83F FOG
FRONT ROYAL*   CLOUDY    63  63 100 CALM      29.83S
LURAY*         CLOUDY    64  64 100 CALM      29.84S FOG
NEW MARKET*    CLOUDY    65  64  96 CALM      29.83F
STAUNTON*      CLOUDY    64  64  99 W5        29.87S FOG
WAYNESBORO*    CLOUDY    64  64 100 CALM      29.86F

$$

WVZ021-048>050-054>055-290500-
EASTERN WEST VIRGINIA PANHANDLE

CITY           SKY/WX    TMP DP  RH WIND       PRES   REMARKS
MARTINSBURG    CLOUDY    64  62  93 CALM      29.82F FOG
PETERSBURG*    CLOUDY    66  66 100 CALM      29.83F FOG

$$

VAZ036>039-050-290500-
CENTRAL FOOTHILLS

CITY           SKY/WX    TMP DP  RH WIND       PRES   REMARKS
CHARLOTTESVILL CLOUDY    67  65  93 N3        29.82F FOG
CULPEPER*      CLOUDY    66  66 100 CALM      29.83F FOG
ORANGE*        CLOUDY    64  64 100 CALM      29.82F FOG
GORDONSVILLE*  CLOUDY    66  66 100 CALM      29.82S FOG
WARRENTON*     CLOUDY    66  63  90 CALM      29.82S FOG

$$

VAZ055>057-290500-
NORTH AND CENTRAL PIEDMONT

CITY           SKY/WX    TMP DP  RH WIND       PRES   REMARKS
FREDERICKSBRG* CLOUDY    68  68 100 CALM      29.81S
STAFFORD*      CLOUDY    66  66 100 N3        29.86S

$$

NCZ024-NYZ072-PAZ021-071-VAZ022-071-290500-
OTHER REGIONAL OBSERVATIONS

CITY           SKY/WX    TMP DP  RH WIND       PRES   REMARKS
NEW YORK CITY  CLOUDY    61  51  70 VRB6      29.94F
PHILADELPHIA   LGT RAIN  60  57  89 NE8       29.87F
PITTSBURGH     TSTM      68  65  90 SW7       29.77S
ROANOKE        CLEAR     71  59  65 CALM      29.87F
RICHMOND       RAIN      70  68  93 CALM      29.82R FOG
RALEIGH        MOCLDY    72  68  87 SW5       29.84F

$$

ANZ530>537-290500-
MARINE OBSERVATIONS

STATION/POSITION TIME  TEMP    WIND        PRES
                       AIR SEA DIR/SP/G
                 (UTC) (F)     (DEG/KT/KT) (MB)
THOMAS PT LIGHT  0400   63 66   60/  8/  8   N/A
BALT KEY BRIDGE  0348   63      50/  8/  9 1010.4F
COVE POINT       0348   64      40/  6/  8 1010.2F
LEWISETTA        0348   67 70   70/  4/  5 1009.3R
SOLOMONS ISLAND  0348   65 68   20/  4/  6   N/A
PINEY POINT      0348           80/  4/  6   N/A

$$





USA.gov is the U.S. government's official web portal to all federal, state and local government web resources and services.